[[{"header":{"parameterUnit":"m.s-1","parameterCategory":1,"la1":30.2991,"la2":30.254,"lo1":-89.0895,"lo2":-89.0444,"dy":0.0017,"dx":0.0017,"nx":28,"ny":28,"refTime":"2024-03-16T21:00:00:Z","depth":0,"parameterNumber":2,"parameterNumberName":"U-component_of_WINDS"},"data":[0,0,0,0,0,0,0,0,0,0,0,0,0,0,0,0,0,0,0,0,0,0,0,0,0,0,0,0,0,0,0,0,0,0,0,0,0,0,0,0,0,0,0,0,0,0,0,0,0,0,0,0,0,0,0,0,0,0,0.0978,0.0978,0,0.0968,0.0968,0.0968,0.0992,0.0992,0.0993,0.0994,0.0982,0.0981,0.098,0,0,0,0,0,0,0,0,0,0,0,0,0,0.1015,0.1014,0.0978,0.0978,0.0977,0.0968,0.0968,0.0968,0.0992,0.0993,0.0993,0.0994,0.0982,0.0981,0.098,0,0,0,0,0,0,0,0,0,0,0,0,0,0.1001,0.1014,0.0978,0.0988,0.0989,0.0968,0.0968,0.0968,0.0991,0.0993,0.0994,0.0995,0.0983,0.0981,0.098,0.0948,0,0,0.0975,0.0974,0,0,0,0,0,0,0,0,0.1002,0.1,0.0987,0.0987,0.0988,0.0982,0.0977,0.0961,0.0991,0.099,0.0994,0.0995,0.0981,0.098,0.0975,0.0947,0.0947,0.0975,0.0974,0.0973,0.0973,0,0,0,0,0,0,0,0.1003,0.1,0.0974,0.0987,0.0987,0.0993,0.0992,0.0974,0.0979,0.0991,0.0992,0.0991,0.0982,0.0977,0.0975,0.0946,0.0975,0.0973,0.0973,0.0972,0.0892,0.0891,0,0,0,0,0,0,0.1003,0.1001,0.0974,0.0974,0.0998,0.0991,0.0991,0.0983,0.098,0.098,0.099,0.0992,0.0979,0.0977,0.0975,0.0937,0.0973,0.0972,0.0971,0.0894,0.0892,0.0891,0,0,0,0,0,0,0.1004,0.1,0.0975,0.0988,0.0985,0.099,0.0981,0.0982,0.0978,0.0979,0.098,0.0984,0.098,0.0977,0.0955,0.0937,0.0971,0.097,0.0895,0.0893,0.0892,0.0862,0,0,0,0,0,0,0.1005,0.1,0.0988,0.0987,0.0984,0.0955,0.098,0.0981,0.0975,0.0978,0.0974,0.0974,0.098,0.0957,0.0953,0.0936,0.0969,0.0897,0.0894,0.0892,0.0864,0.0859,0.0855,0,0,0,0,0,0.1006,0.098,0.0988,0.0984,0.0969,0.0954,0.0952,0.096,0.0974,0.0961,0.0963,0.0975,0.094,0.0954,0.095,0.0932,0.0898,0.0895,0.0892,0.0867,0.086,0.0855,0,0,0,0,0,0,0.0977,0.098,0.0988,0.0961,0.0957,0.0958,0.0942,0.0953,0.0944,0.0946,0.0956,0.0955,0.0931,0.093,0.0945,0.0902,0.0921,0.0918,0.0903,0.0897,0.0893,0.0893,0.0967,0,0,0,0,0,0.0967,0.0955,0.0958,0.0934,0.0931,0.0937,0.0931,0.0937,0.0933,0.0931,0.0931,0.0926,0.0914,0.0906,0.0895,0.0865,0.0865,0.0851,0.0846,0.0842,0.0839,0.0823,0.0817,0.0882,0.0882,0.0882,0,0,0.0947,0.0948,0.0939,0.0928,0.0925,0.0912,0.0935,0.092,0.091,0.0929,0.0907,0.0907,0.0902,0.0876,0.0865,0.0874,0.0821,0.0839,0.0836,0.0834,0.082,0.0814,0.0808,0.088,0.0881,0.0881,0,0,0.0904,0.0903,0.0883,0.0881,0.0877,0.0882,0.0877,0.0877,0.0877,0.0857,0.0871,0.0859,0.0839,0.0835,0.083,0.0788,0.0798,0.0784,0.0759,0.0744,0.0738,0.0734,0.0719,0.0713,0.0781,0.0781,0.0781,0,0.0879,0.086,0.0871,0.0855,0.085,0.0868,0.0848,0.0845,0.0838,0.0834,0.0845,0.0821,0.0819,0.0792,0.0782,0.0778,0.0772,0.0784,0.0739,0.0734,0.073,0.0715,0.071,0.0779,0.0779,0.0779,0.0779,0,0.0829,0.0816,0.08,0.0794,0.0788,0.0769,0.0778,0.077,0.0778,0.0781,0.076,0.0759,0.0749,0.0743,0.075,0.0718,0.0724,0.0737,0.0756,0.0722,0.0708,0.0703,0.0776,0.0777,0.0778,0.0778,0,0,0.0765,0.0767,0.0761,0.0759,0.0758,0.0748,0.0731,0.0722,0.0715,0.071,0.0696,0.0679,0.0691,0.0686,0.0693,0.068,0.0647,0.0695,0.0695,0.0685,0.0611,0.0601,0.0594,0.0655,0.0654,0.0653,0.0611,0,0.0722,0.0693,0.0704,0.0675,0.0662,0.0681,0.0666,0.0664,0.0667,0.0657,0.0661,0.0648,0.0666,0.0663,0.0651,0.0653,0.0632,0.0657,0.0641,0.064,0.064,0.0587,0.0575,0.0536,0.0606,0.0605,0.0605,0,0.0667,0.0661,0.0631,0.0633,0.0629,0.0615,0.0609,0.0599,0.0597,0.06,0.0596,0.0606,0.059,0.0611,0.0588,0.0605,0.06,0.06,0.0599,0.0596,0.0619,0.0582,0.0524,0.0517,0.0596,0.0597,0.0598,0,0.0622,0.0607,0.0587,0.0585,0.0587,0.0578,0.0578,0.0577,0.0572,0.0566,0.0563,0.0555,0.055,0.0544,0.0552,0.0566,0.0528,0.055,0.053,0.0529,0.0519,0.0519,0.0458,0.0518,0.0518,0.0518,0.0518,0,0.0572,0.0552,0.0567,0.0555,0.0534,0.0547,0.0526,0.0528,0.0528,0.0516,0.0532,0.0521,0.0533,0.0523,0.0529,0.0509,0.0507,0.0509,0.0511,0.0507,0.0507,0.0502,0.0505,0.0516,0.0517,0.0517,0.0517,0,0.0517,0.0527,0.0506,0.0511,0.0512,0.0496,0.05,0.0489,0.0494,0.0479,0.0477,0.0485,0.0474,0.0482,0.0471,0.0475,0.0449,0.0455,0.045,0.0451,0.043,0.0432,0.0363,0.0355,0.042,0.042,0.0419,0,0.0483,0.0469,0.0473,0.0467,0.0467,0.0457,0.0452,0.0465,0.0459,0.0457,0.0446,0.0436,0.0429,0.0411,0.0415,0.0407,0.0413,0.0389,0.0411,0.0408,0.0411,0.0412,0.041,0.0384,0.0383,0.0383,0.0382,0,0.0423,0.0429,0.0422,0.0416,0.041,0.0406,0.0403,0.0397,0.0411,0.0403,0.0393,0.0388,0.0377,0.0368,0.0362,0.0362,0.0374,0.0376,0.037,0.0365,0.0363,0.0363,0.0436,0.0376,0.0377,0.0377,0.0378,0.0378,0.0377,0.0366,0.0368,0.0359,0.0359,0.0356,0.0346,0.0352,0.0343,0.0337,0.0345,0.0332,0.0332,0.0325,0.0324,0.0314,0.0324,0.0316,0.0314,0.0312,0.0309,0.0366,0.0313,0.0313,0.0314,0.0314,0.0314,0,0.0317,0.032,0.0312,0.0309,0.0302,0.0316,0.0315,0.0308,0.0297,0.0296,0.029,0.0278,0.027,0.0274,0.0267,0.0258,0.0264,0.0256,0.0256,0.0256,0.0301,0.0306,0.0251,0.0251,0.0251,0.0251,0.0251,0.0252,0.0285,0.0267,0.0273,0.0255,0.0258,0.0246,0.0244,0.0242,0.0242,0.0229,0.0222,0.0226,0.0227,0.0221,0.0213,0.0215,0.0211,0.0201,0.0204,0.0246,0.0252,0.0258,0.0263,0.02,0.02,0.016,0.016,0.0159]},{"header":{"parameterUnit":"m.s-1","parameterCategory":1,"la1":30.2991,"la2":30.254,"lo1":-89.0895,"lo2":-89.0444,"dy":0.0017,"dx":0.0017,"nx":28,"ny":28,"refTime":"2024-03-16T21:00:00:Z","depth":0,"parameterNumber":3,"parameterNumberName":"V-component_of_WINDS"},"data":[0,0,0,0,0,0,0,0,0,0,0,0,0,0,0,0,0,0,0,0,0,0,0,0,0,0,0,0,0,0,0,0,0,0,0,0,0,0,0,0,0,0,0,0,0,0,0,0,0,0,0,0,0,0,0,0,0,0,-6.7873,-6.7874,0,-6.798,-6.7981,-6.7982,-6.7918,-6.7915,-6.7912,-6.7909,-6.8013,-6.8019,-6.8024,0,0,0,0,0,0,0,0,0,0,0,0,0,-6.761,-6.7615,-6.7873,-6.7874,-6.7876,-6.798,-6.7981,-6.7983,-6.7918,-6.7915,-6.7911,-6.7907,-6.8011,-6.8018,-6.8025,0,0,0,0,0,0,0,0,0,0,0,0,0,-6.7721,-6.7616,-6.7873,-6.7856,-6.7856,-6.7979,-6.7981,-6.7983,-6.7919,-6.7915,-6.791,-6.7906,-6.8009,-6.8017,-6.8026,-6.817,0,0,-6.8051,-6.8055,0,0,0,0,0,0,0,0,-6.7715,-6.7731,-6.7857,-6.7858,-6.7858,-6.7931,-6.7926,-6.8045,-6.792,-6.7895,-6.7909,-6.7903,-6.7989,-6.7999,-6.8029,-6.8175,-6.8179,-6.8052,-6.8057,-6.8061,-6.8063,0,0,0,0,0,0,0,-6.7707,-6.7726,-6.7915,-6.7859,-6.7859,-6.7842,-6.7853,-6.7949,-6.7966,-6.7897,-6.7892,-6.7906,-6.7988,-6.8021,-6.8031,-6.8181,-6.8052,-6.8059,-6.8065,-6.8068,-6.845,-6.8455,0,0,0,0,0,0,-6.7701,-6.772,-6.7912,-6.7918,-6.7773,-6.7851,-6.7863,-6.7912,-6.7965,-6.7969,-6.791,-6.7903,-6.8009,-6.8021,-6.8034,-6.8207,-6.8061,-6.8069,-6.8074,-6.8445,-6.8451,-6.8457,0,0,0,0,0,0,-6.7696,-6.7719,-6.7907,-6.7818,-6.7841,-6.786,-6.7916,-6.7916,-6.7949,-6.7975,-6.7978,-6.7941,-6.8006,-6.8022,-6.8137,-6.821,-6.8073,-6.808,-6.8439,-6.8447,-6.8454,-6.8554,0,0,0,0,0,0,-6.7688,-6.7717,-6.7773,-6.782,-6.7846,-6.801,-6.792,-6.7922,-6.7964,-6.7956,-6.8004,-6.8008,-6.8003,-6.8125,-6.8146,-6.8219,-6.8087,-6.8433,-6.8443,-6.8452,-6.8544,-6.8564,-6.8581,0,0,0,0,0,-6.7679,-6.7796,-6.7777,-6.78,-6.7916,-6.8014,-6.8029,-6.8023,-6.7971,-6.8026,-6.8043,-6.8006,-6.8199,-6.8137,-6.816,-6.8237,-6.8428,-6.844,-6.8451,-6.8536,-6.856,-6.8581,0,0,0,0,0,0,-6.7756,-6.7802,-6.7781,-6.7916,-6.7962,-6.8003,-6.8074,-6.8048,-6.8109,-6.8098,-6.8086,-6.8098,-6.8218,-6.8238,-6.8169,-6.838,-6.8305,-6.8322,-6.8362,-6.8385,-6.8403,-6.8396,-6.8094,0,0,0,0,0,-6.7789,-6.7866,-6.7901,-6.8017,-6.8042,-6.8054,-6.8096,-6.8088,-6.8134,-6.8153,-6.8178,-6.8223,-6.8294,-6.834,-6.8406,-6.8547,-6.8556,-6.8611,-6.8629,-6.8644,-6.8659,-6.8735,-6.876,-6.8495,-6.8494,-6.8494,0,0,-6.7857,-6.7891,-6.7941,-6.8034,-6.8068,-6.8148,-6.8071,-6.8157,-6.8216,-6.8165,-6.8276,-6.8296,-6.8345,-6.8474,-6.8532,-6.8495,-6.8734,-6.8659,-6.8671,-6.8677,-6.875,-6.8775,-6.8797,-6.8502,-6.8501,-6.85,0,0,-6.8022,-6.8056,-6.8157,-6.8194,-6.8248,-6.8255,-6.828,-6.8326,-6.8338,-6.8449,-6.8413,-6.8481,-6.8603,-6.864,-6.8675,-6.8855,-6.8823,-6.8876,-6.8973,-6.9047,-6.9068,-6.9087,-6.9151,-6.9175,-6.8891,-6.8891,-6.8891,0,-6.8099,-6.8219,-6.8211,-6.8302,-6.8344,-6.8304,-6.8405,-6.8441,-6.8513,-6.8542,-6.85,-6.8653,-6.8683,-6.8821,-6.8865,-6.8894,-6.8921,-6.8871,-6.9066,-6.9084,-6.9102,-6.9163,-6.9188,-6.8897,-6.8896,-6.8896,-6.8895,0,-6.8312,-6.8396,-6.847,-6.8544,-6.8594,-6.8689,-6.8695,-6.8746,-6.8734,-6.8745,-6.8859,-6.8894,-6.8967,-6.8999,-6.8986,-6.9134,-6.911,-6.9068,-6.8992,-6.9133,-6.9191,-6.9215,-6.8906,-6.8904,-6.8902,-6.89,0,0,-6.8528,-6.8597,-6.8625,-6.8658,-6.8715,-6.8779,-6.8872,-6.8946,-6.899,-6.9041,-6.9119,-6.9223,-6.9185,-6.9224,-6.9215,-6.9281,-6.9422,-6.923,-6.9231,-6.9265,-6.9588,-6.9621,-6.9648,-6.9401,-6.9406,-6.9409,-6.9584,0,-6.8698,-6.8863,-6.8859,-6.9012,-6.909,-6.9053,-6.9134,-6.9177,-6.9191,-6.9257,-6.927,-6.9345,-6.9288,-6.9312,-6.9375,-6.9392,-6.9487,-6.9379,-6.9473,-6.9476,-6.9463,-6.9678,-6.9713,-6.9876,-6.9607,-6.9611,-6.9613,0,-6.8917,-6.8978,-6.914,-6.9187,-6.9219,-6.9293,-6.936,-6.9424,-6.9472,-6.9477,-6.9522,-6.9503,-6.9596,-6.9519,-6.9647,-6.9574,-6.9612,-6.9626,-6.9632,-6.9641,-6.9554,-6.9694,-6.9928,-6.9953,-6.9649,-6.9646,-6.9643,0,-6.906,-6.9182,-6.9295,-6.9324,-6.9382,-6.9434,-6.946,-6.9504,-6.9548,-6.9606,-6.9635,-6.9703,-6.974,-6.9792,-6.9791,-6.9735,-6.9922,-6.9843,-6.9928,-6.9928,-6.9969,-6.9967,-7.0214,-6.9993,-6.9993,-6.9992,-6.9992,0,-6.925,-6.9351,-6.936,-6.943,-6.9541,-6.9535,-6.9645,-6.9665,-6.9704,-6.9776,-6.9747,-6.9815,-6.981,-6.9878,-6.9877,-6.9984,-7.0,-7.0007,-7.0006,-7.001,-7.0009,-7.0035,-7.0024,-6.9999,-6.9997,-6.9996,-6.9995,0,-6.9428,-6.9439,-6.956,-6.9605,-6.9618,-6.9698,-6.9736,-6.9801,-6.9812,-6.9904,-6.9925,-6.9942,-7.002,-7.0025,-7.0115,-7.0114,-7.0245,-7.023,-7.0229,-7.0227,-7.0312,-7.0304,-7.0584,-7.0621,-7.0376,-7.0378,-7.038,0,-6.955,-6.9626,-6.968,-6.9727,-6.9757,-6.9833,-6.9879,-6.9876,-6.9924,-6.9985,-7.0044,-7.012,-7.0181,-7.0308,-7.0328,-7.0396,-7.0384,-7.0477,-7.0394,-7.0396,-7.0386,-7.0382,-7.039,-7.0494,-7.0496,-7.0499,-7.05,0,-6.9764,-6.9765,-6.9834,-6.9905,-6.9961,-7.0016,-7.0068,-7.0107,-7.011,-7.0166,-7.0247,-7.0295,-7.0388,-7.0464,-7.0532,-7.0556,-7.0529,-7.0527,-7.055,-7.0556,-7.0552,-7.0556,-7.0275,-7.052,-7.0518,-7.0517,-7.0516,-7.0515,-6.9917,-6.9984,-7.0034,-7.0111,-7.015,-7.0198,-7.0263,-7.0283,-7.0351,-7.0428,-7.0421,-7.0512,-7.0557,-7.0645,-7.0675,-7.0745,-7.0713,-7.0746,-7.0755,-7.0764,-7.0773,-7.0541,-7.0757,-7.0756,-7.0756,-7.0755,-7.0755,0,-7.0131,-7.0161,-7.0232,-7.0306,-7.0367,-7.0338,-7.0393,-7.0445,-7.0526,-7.0572,-7.0633,-7.0727,-7.0801,-7.0826,-7.0898,-7.0948,-7.0938,-7.0967,-7.0964,-7.097,-7.0797,-7.077,-7.0975,-7.0975,-7.0975,-7.0975,-7.0975,-7.0975,-7.0249,-7.0361,-7.0369,-7.05,-7.0528,-7.0618,-7.0653,-7.0697,-7.0734,-7.0841,-7.0903,-7.0919,-7.0957,-7.1031,-7.1097,-7.1103,-7.1131,-7.1166,-7.1166,-7.1004,-7.0982,-7.0961,-7.0936,-7.1172,-7.1172,-7.1333,-7.1335,-7.1336]}]]